Tracking 29892 objects as of 21-Nov-2024
HD Live streaming from Space Station
objects crossing your sky now

STARLINK-31845

Track STARLINK-31845 now!
10-day predictions
STARLINK-31845 is classified as:


NORAD ID: 60129
Int'l Code: 2024-118S
Perigee: 432.3 km
Apogee: 433.3 km
Inclination: 53.2 °
Period: 93.1 minutes
Semi major axis: 6803 km
RCS: Unknown
Launch date: June 24, 2024
Source: United States (US)
Launch site: AIR FORCE WESTERN TEST RANGE (AFWTR)
Your satellite tracking list
Your tracking list is empty




NASA's NSSDC Master Catalog

Two Line Element Set (TLE):
1 60129U 24118S   24325.29805995  .00005698  00000-0  11967-3 0  9992
2 60129  53.1589  68.8808 0000773 328.3178  31.7783 15.46944730 23083
Source of the keplerian elements: AFSPC